GOKTURK 1A

Last updated on Fri Dec 19 2025 00:02:33 GMT+0000 (Coordinated Universal Time)

1 41875U 16073A 25352.65919713 .00000417 00000+0 90937-4 0 9993 2 41875 98.1434 244.9454 0001254 80.2519 279.8825 14.62786253482431
UTC large
Height (km)
Speed (km/s)
/
Latitude / Longitude
Inclination (degrees)
Orbital Period (minutes)
Azimuth
Elevation
Range (km)
Doppler Factor

Next 0 passes for location: London (51.5072 / 0.1276)

Sorry there are no passes over London.